Tracking 28125 objects as of 2-Oct-2023
HD Live streaming from Space Station
objects crossing your sky now

STARLINK-3555

Track STARLINK-3555 now!
10-day predictions
STARLINK-3555 is classified as:


NORAD ID: 51863
Int'l Code: 2022-022M
Perigee: 545.9 km
Apogee: 547.9 km
Inclination: 53.2 °
Period: 95.4 minutes
Semi major axis: 6917 km
RCS: Unknown
Launch date: March 3, 2022
Source: United States (US)
Launch site: AIR FORCE EASTERN TEST RANGE (AFETR)
Your satellite tracking list
Your tracking list is empty




NASA's NSSDC Master Catalog

Two Line Element Set (TLE):
1 51863U 22022M   23275.43344956 -.00000923  00000-0 -39921-4 0  9992
2 51863  53.2176  41.1466 0001377  90.9883 269.1267 15.08833833 88861
Source of the keplerian elements: AFSPC